Location: Recife
(8.0585°S, 34.8848°W)
Time: 11:21:31
(UTC-03:00)

Explorer 11/Cluster Stage 4 - Pass Details

Date: 20 April 2026
Orbit: 463 x 1174 km, 28.8° (Epoch: 20 May)

Event Time Altitude Azimuth Distance (km) Brightness Sun altitude
Rises 03:05:04 0° 232° (SW) 2,485 - -34.2°
Reaches altitude 10° 03:07:14 10° 225° (SW) 1,628 - -33.6°
Maximum altitude 03:10:45 44° 151° (SSE) 698 - -32.8°
Exits shadow 03:13:08 20° 88° (E) 1,239 8.2 -32.2°
Drops below altitude 10° 03:14:40 10° 78° (ENE) 1,811 9.3 -31.8°
Sets 03:17:12 0° 72° (ENE) 2,806 10.5 -31.2°
